Satellite-Ground Cal/Val Region Overpasses Predictions

Prediction of Satellite NPP Overpassing Cal/Val Region: PacNW

Region Location: (Latitude: 10.00, Longitude: 139.50) to (Latitude: 22.70, Longitude: 165.60).

Table of predicted overpasses for the next 14.0 days since TLE Epoch: 9/27/2019
Interval Starting Time Starting Location Ending Time Ending Location
1 09/28/2019 03:11:24 ( 10.05, 151.96) 09/28/2019 03:14:59 ( 22.68, 148.96)
2 09/28/2019 15:43:17 ( 22.67, 149.18) 09/28/2019 15:46:52 ( 10.05, 146.18)
3 09/29/2019 02:52:22 ( 10.03, 156.72) 09/29/2019 02:55:57 ( 22.65, 153.72)
4 09/29/2019 15:24:15 ( 22.69, 153.94) 09/29/2019 15:27:51 ( 10.01, 150.93)
5 09/30/2019 02:33:20 ( 10.00, 161.48) 09/30/2019 02:36:56 ( 22.69, 158.47)
6 09/30/2019 15:05:13 ( 22.66, 158.69) 09/30/2019 15:08:48 ( 10.04, 155.69)
7 10/01/2019 02:15:05 ( 12.80, 165.59) 10/01/2019 02:17:53 ( 22.66, 163.23)
8 10/01/2019 03:55:48 ( 10.04, 140.85) 10/01/2019 03:57:27 ( 15.86, 139.50)
9 10/01/2019 14:46:11 ( 22.69, 163.45) 10/01/2019 14:49:47 ( 10.01, 160.44)
10 10/02/2019 03:36:46 ( 10.02, 145.61) 10/02/2019 03:40:22 ( 22.70, 142.60)
11 10/02/2019 14:30:15 ( 11.74, 165.59) 10/02/2019 14:30:44 ( 10.03, 165.20)
12 10/02/2019 16:08:39 ( 22.65, 142.82) 10/02/2019 16:12:14 ( 10.03, 139.83)
13 10/03/2019 03:17:44 ( 10.05, 150.36) 10/03/2019 03:21:19 ( 22.68, 147.36)
14 10/03/2019 15:49:37 ( 22.67, 147.59) 10/03/2019 15:53:12 ( 10.05, 144.59)
15 10/04/2019 02:58:42 ( 10.03, 155.12) 10/04/2019 03:02:17 ( 22.65, 152.13)
16 10/04/2019 15:30:34 ( 22.70, 152.35) 10/04/2019 15:34:10 ( 10.02, 149.34)
17 10/05/2019 02:39:39 ( 10.00, 159.88) 10/05/2019 02:43:15 ( 22.68, 156.87)
18 10/05/2019 15:11:33 ( 22.66, 157.09) 10/05/2019 15:15:08 ( 10.04, 154.10)
19 10/06/2019 02:20:38 ( 10.04, 164.63) 10/06/2019 02:24:13 ( 22.66, 161.64)
20 10/06/2019 14:52:31 ( 22.69, 161.86) 10/06/2019 14:56:07 ( 10.01, 158.85)
21 10/07/2019 03:43:05 ( 10.02, 144.02) 10/07/2019 03:46:40 ( 22.64, 141.02)
22 10/07/2019 14:34:39 ( 18.55, 165.60) 10/07/2019 14:37:04 ( 10.03, 163.61)
23 10/07/2019 16:14:59 ( 22.65, 141.23) 10/07/2019 16:17:00 ( 15.55, 139.51)
24 10/08/2019 03:24:04 ( 10.06, 148.77) 10/08/2019 03:27:39 ( 22.68, 145.77)
25 10/08/2019 15:55:57 ( 22.67, 145.99) 10/08/2019 15:59:32 ( 10.05, 142.99)
26 10/09/2019 03:05:01 ( 10.03, 153.53) 10/09/2019 03:08:36 ( 22.66, 150.53)
27 10/09/2019 15:36:54 ( 22.69, 150.75) 10/09/2019 15:40:30 ( 10.01, 147.74)
28 10/10/2019 02:45:59 ( 10.01, 158.29) 10/10/2019 02:49:35 ( 22.69, 155.28)
29 10/10/2019 15:17:53 ( 22.66, 155.50) 10/10/2019 15:21:28 ( 10.04, 152.50)
30 10/11/2019 02:26:57 ( 10.05, 163.04) 10/11/2019 02:30:32 ( 22.67, 160.04)


NCC Satellite Cal/Val Overpasses Prediction Service
